Regional Weather Roundup
Issued by NWS

Home | Current Version | Previous Version | Text Only | Print | Product List | Glossary On
Versions: 1 2 3 4 5 6 7 8 9 10 11 12 13 14 15 16 17 18 19 20 21 22 23 24 25 26 27 28 29 30 31 32 33 34 35 36 37 38 39 40 41 42 43 44 45 46 47 48 49 50
000
ASUS46 KPQR 070510
RWROR

OREGON REGIONAL WEATHER ROUNDUP
NATIONAL WEATHER SERVICE PORTLAND OR
900 PM PST SAT FEB 06 2016

NOTE: "FAIR" INDICATES FEW OR NO CLOUDS BELOW 12,000 FEET WITH
NO SIGNIFICANT WEATHER AND/OR OBSTRUCTIONS TO VISIBILITY.

ORZ001>013-070600-
NORTHWEST OREGON


CITY           SKY/WX    TMP DP  RH WIND       PRES   REMARKS
ASTORIA        MOCLDY    45  41  86 E3        30.42R
NEWPORT        CLOUDY    48  43  81 E8        30.43R
PORTLAND       CLOUDY    45  40  82 NW3       30.44R
VANCOUVER WA   CLOUDY    42  39  89 CALM      30.44R
SCAPPOOSE      CLOUDY    42  38  85 CALM      30.44R
HILLSBORO      CLOUDY    41  40  96 CALM      30.42F
AURORA         CLOUDY    47  40  76 N5        30.44R
MCMINNVILLE    CLOUDY    47  41  80 N3        30.43F
SALEM          CLOUDY    50  38  63 CALM      30.42S
CORVALLIS      CLOUDY    46  43  87 CALM      30.44R
EUGENE         CLOUDY    47  45  93 SW3       30.43F
$$

ORZ021-028-070600-
SOUTHWEST OREGON


CITY           SKY/WX    TMP DP  RH WIND       PRES   REMARKS
NORTH BEND     CLOUDY    54  54 100 SE5       30.41S
BROOKINGS      PTCLDY    53  51  93 VRB3      30.42S
ROSEBURG       CLOUDY    50  48  93 CALM      30.42S
SEXTON SUMMIT  FOG       45  44  97 S8        30.42R VSB 1/4
MEDFORD        CLOUDY    52  44  74 SW5       30.43R
$$

ORZ014>016-041-070600-
COLUMBIA GORGE


CITY           SKY/WX    TMP DP  RH WIND       PRES   REMARKS
TROUTDALE      CLOUDY    48  38  68 E6        30.44R
THE DALLES     MOCLDY    43  36  76 NW6       30.45S
$$

ORZ029>031-041-044-049-050-061>064-502-503-505>511-070600-
EASTERN OREGON


CITY           SKY/WX    TMP DP  RH WIND       PRES   REMARKS
REDMOND        PTCLDY    33  28  81 S5        30.41S WCI  29
BEND           MOCLDY    36  32  87 CALM      30.42S
PRINEVILLE     PTCLDY    36  32  87 CALM      30.41S
KLAMATH FALLS  CLEAR     36  32  85 N3        30.44R
LAKEVIEW       CLEAR     30  25  80 NW8       30.46R WCI  23
HERMISTON      CLOUDY    42  35  76 S5        30.43S
PENDLETON      CLOUDY    39  33  79 E3        30.41S
JOHN DAY       MOCLDY    40  34  77 SW3       30.43S
MEACHAM        CLOUDY    32  27  81 CALM      30.38F
LA GRANDE      CLOUDY    37  27  65 S9        30.42S WCI  31
BAKER CITY     PTCLDY    27  25  92 CALM      30.44F
BURNS          CLOUDY    32  28  85 CALM      30.43S
ROME             N/A     38  29  70 SE12      30.43R WCI  30
ONTARIO        PTCLDY    33  29  85 SW8       30.49S WCI  26
$$



USA.gov is the U.S. government's official web portal to all federal, state and local government web resources and services.